Regional Weather Roundup
Issued by NWS Little Rock, AR

Home | Current Version | Previous Version | Graphics & Text | Print | Product List | Glossary On
Versions: 1 2 3 4 5 6 7 8 9 10 11 12 13 14 15 16 17 18 19 20 21 22 23 24 25 26 27 28 29 30 31 32 33 34 35 36 37 38 39 40 41 42 43 44 45 46 47 48 49 50
000
ASUS44 KLZK 031305
RWRLZK

WEATHER ROUNDUP FOR ARKANSAS
NATIONAL WEATHER SERVICE LITTLE ROCK AR
700 AM CST TUE MAR 03 2015

NOTE: "FAIR" INDICATES FEW OR NO CLOUDS BELOW 12,000 FEET WITH NO
SIGNIFICANT WEATHER AND/OR OBSTRUCTIONS TO VISIBILITY.

ARZ001-003-010-029-031400-
NORTHWEST ARKANSAS

CITY           SKY/WX    TMP DP  RH WIND       PRES   REMARKS
FAYETTEVILLE   CLOUDY    42  42 100 SW18G29   29.93S FOG
FORT SMITH     LGT RAIN  36  34  92 E8        30.00F FOG
HARRISON       CLOUDY    43  43 100 SE10      29.91F FOG
BENTONVILLE    CLOUDY    41  37  87 SW10      29.94S VSB 1/2
ROGERS         LGT RAIN  42  41  96 SW12      29.94R VSB 1/2
SILOAM SPGS    CLOUDY    39  34  81 S8        29.95S VSB 1/2
HIGHFILL       FOG       41  40  96 SW10      29.93R VSB 1/2
SPRINGDALE     FOG       43  43 100 SW14G21   29.95R VSB 1/2
$$

ARZ004-005-016-031400-
NORTH CENTRAL ARKANSAS

CITY           SKY/WX    TMP DP  RH WIND       PRES   REMARKS
BATESVILLE     CLOUDY    34  30  86 S6        30.03F WCI  29
FLIPPIN        CLOUDY    37  34  87 S6        29.94F
MTN HOME       CLOUDY    35  34  96 S8        29.93F FOG     WCI  29
$$

ARZ040-041-031400-
WEST CENTRAL ARKANSAS

CITY           SKY/WX    TMP DP  RH WIND       PRES   REMARKS
MENA           CLOUDY    39  37  93 CALM      30.01F
MOUNT IDA      FOG       36  35  96 CALM      30.00S VSB 3/4
$$

ARZ009-017-025-026-028-031400-
NORTHEAST ARKANSAS

CITY           SKY/WX    TMP DP  RH WIND       PRES   REMARKS
CORNING        CLOUDY    34  32  93 SW3       30.03S FOG
JONESBORO      CLOUDY    34  34 100 S6        30.05S FOG     WCI  29
NEWPORT        FOG       33  33 100 S9        30.06F VSB 1/2 WCI  25
WALNUT RIDGE   CLOUDY    34  28  80 S14       30.02F WCI  24
BLYTHEVILLE    FOG       36  36 100 SW5       30.06F VSB 1/4
$$

ARZ022-023-033-042-044-031400-
CENTRAL ARKANSAS

CITY           SKY/WX    TMP DP  RH WIND       PRES   REMARKS
LITTLE ROCK    FOG       36  34  92 S3        30.07F VSB 1
N LITTLE ROCK    N/A     35  35 100 S8        30.07F WCI  29
JACKSONVILLE   CLOUDY    35  35  99 SW2       30.06S FOG
SEARCY         FOG       34  34 100 S3        30.07F VSB 1
HOT SPRINGS    FOG       36  35  96 CALM      30.06F VSB 1
RUSSELLVILLE   CLOUDY    48  34  58 E3        30.03S HAZE
CLINTON        FOG       34  32  93 CALM      30.06R VSB 1/2
$$

ARZ036-031400-
EAST ARKANSAS

CITY           SKY/WX    TMP DP  RH WIND       PRES   REMARKS
WEST MEMPHIS   FOG       40  40 100 CALM      30.07S VSB 1/4
$$

ARZ050-053-066-070-073-031400-
SOUTHWEST ARKANSAS

CITY           SKY/WX    TMP DP  RH WIND       PRES   REMARKS
ARKADELPHIA    FOG       36  36 100 CALM      30.09S VSB 3/4
CAMDEN         FOG       37  36  93 CALM      30.09F VSB 1/4
TEXARKANA      FOG       38  38 100 SE5       30.06F VSB 3/4
EL DORADO      FOG       40  39  97 CALM      30.09R VSB 1/2
DE QUEEN       FOG       37  36  96 E3        30.05F VSB 1/2
$$

ARZ056-057-069-031400-
SOUTHEAST ARKANSAS

CITY           SKY/WX    TMP DP  RH WIND       PRES   REMARKS
PINE BLUFF     FOG       36  36 100 CALM      30.09S VSB 3/4
STUTTGART      CLOUDY    37  36  93 S5        30.09F VSB 1/2
MONTICELLO     FOG       40  39  97 CALM      30.09R VSB 1/2

$$




USA.gov is the U.S. government's official web portal to all federal, state and local government web resources and services.